Location: Cuzcurrita-R�o Tir�n
(42.5415°N, 2.9642°W)
Time: 19:10:14
(UTC+00:00)

CSL-04 DEB - Pass Details

Date: 17 January 2021
Orbit: 544 x 628 km, 98.8° (Epoch: 03 March)

Event Time Altitude Azimuth Distance (km) Brightness Sun altitude
Rises 17:49:59 0° 16° (NNE) 2,879 7.6 -8.1°
Reaches altitude 10° 17:52:13 10° 20° (NNE) 1,958 6.8 -8.5°
Maximum altitude 17:56:26 64° 102° (ESE) 658 4.5 -9.2°
Drops below altitude 10° 18:00:30 10° 185° (S) 1,891 7.4 -10.0°
Sets 18:02:38 0° 188° (S) 2,771 8.3 -10.3°
